{"data":{"norad_id":63381,"intl_designator":"2025-063U","name":"STARLINK-33643","alt_names":[],"object_type":"PAYLOAD","status":"ACTIVE","operator":null,"country":"US","launch_date":"2025-03-26","launch_site_code":"AFWTR","launch_vehicle":null,"mission":null,"orbit_class":"UNKNOWN","rcs_meters":null,"size_class":null,"mass_kg":null,"dimensions":null,"purposes":["comms"],"wikipedia_slug":null,"has_3d_model":false,"image_url":null,"decayed_at":null,"tle_current":{"epoch":"2026-05-25T04:40:34.359168Z","epoch_age_seconds":48464,"freshness":"FRESH","line1":"1 63381U 25063U   26145.19484212  .00017473  00000+0  60050-3 0  9991","line2":"2 63381  53.1589  57.0369 0001156 100.9881 259.1250 15.30209805 66474","mean_motion":15.30209805,"eccentricity":0.0001156,"inclination_deg":53.1589,"raan_deg":57.0369,"arg_perigee_deg":100.9881,"mean_anomaly_deg":259.125,"bstar":0.0006005,"rev_number":6647,"period_min":94.10474271533,"perigee_km":474.39354949807,"apogee_km":475.97803772795,"semimajor_km":6853.322793613,"source":"CELESTRAK","updated_at":"2026-05-25T13:38:19.965621Z"}}}